EW5855 Weather Reports


Display with metric or nautical units.
time (UTC)temp
F
wind
direction
speed
MPH
gust
MPH
rain 1hr
in
rain 24hr
in
rain mn
in
humidity
%
barometer
mb
20260510194518 65 232 5.0 9.0 0.00 0.06 0.06 55 1012.0
20260510193535 65 231 8.0 16.0 0.00 0.06 0.06 55 1012.1
20260510192531 65 233 5.0 10.0 0.00 0.06 0.06 60 1012.1
20260510191527 63 266 6.0 15.0 0.00 0.07 0.06 61 1012.4
20260510190523 64 254 8.0 15.0 0.00 0.07 0.06 62 1012.5
20260510185539 63 236 7.0 14.0 0.00 0.07 0.06 62 1012.5
20260510184516 62 218 8.0 15.0 0.00 0.07 0.06 65 1012.5
20260510183532 62 248 7.0 13.0 0.00 0.07 0.06 64 1012.6
20260510182528 62 224 5.0 9.0 0.00 0.07 0.06 66 1012.6
20260510181523 62 258 5.0 9.0 0.00 0.07 0.06 66 1012.5
20260510180520 60 253 5.0 13.0 0.00 0.07 0.06 66 1012.5
20260510175516 60 224 4.0 8.0 0.00 0.07 0.06 70 1012.6
20260510174532 60 218 4.0 8.0 0.00 0.07 0.06 74 1012.4
20260510173528 59 256 4.0 10.0 0.00 0.07 0.06 75 1012.6
20260510172524 59 261 4.0 8.0 0.00 0.07 0.06 75 1012.6
20260510171520 59 244 2.0 3.0 0.00 0.08 0.06 80 1012.7
20260510170516 58 201 3.0 7.0 0.00 0.08 0.06 83 1012.8
20260510165531 57 245 4.0 10.0 0.00 0.08 0.06 86 1012.8
20260510164527 57 266 5.0 10.0 0.00 0.08 0.06 89 1012.9
20260510163523 57 268 7.0 14.0 0.00 0.09 0.06 88 1012.9
20260510162519 57 237 5.0 15.0 0.00 0.09 0.06 87 1012.8
20260510161534 57 239 6.0 13.0 0.00 0.10 0.06 87 1012.9
20260510160531 57 229 3.0 6.0 0.00 0.11 0.06 91 1012.9
20260510155526 56 225 3.0 7.0 0.00 0.12 0.06 94 1012.9
20260510154522 54 237 3.0 6.0 0.00 0.13 0.06 96 1012.9
20260510153518 54 254 2.0 6.0 0.00 0.15 0.06 98 1012.6
20260510152534 54 213 2.0 4.0 0.01 0.16 0.06 99 1012.6
20260510151530 54 229 1.0 3.0 0.02 0.18 0.06 99 1012.5
20260510150526 54 194 1.0 2.0 0.06 0.19 0.06 99 1012.5
20260510145602 54 0.0 0.0 0.06 0.20 0.06 99 1012.3
20260510144519 54 0.0 0.0 0.06 0.20 0.06 99 1012.2
20260510143535 54 264 1.0 2.0 0.06 0.20 0.06 98 1012.0
20260510142611 54 240 2.0 7.0 0.05 0.20 0.05 97 1012.0
20260510141527 55 273 4.0 8.0 0.04 0.19 0.04 94 1012.3
20260510140523 56 272 4.0 7.0 0.00 0.15 0.00 91 1011.9
20260510135539 56 248 2.0 4.0 0.00 0.15 0.00 90 1011.6
20260510134535 56 215 2.0 6.0 0.00 0.15 0.00 89 1011.3
20260510133532 56 208 3.0 9.0 0.00 0.15 0.00 88 1011.3
20260510132627 57 243 3.0 7.0 0.00 0.15 0.00 88 1011.2
20260510131523 57 200 3.0 8.0 0.00 0.15 0.00 88 1011.2
20260510130539 56 240 4.0 10.0 0.00 0.15 0.00 89 1011.5
20260510125537 56 210 2.0 7.0 0.00 0.15 0.00 90 1011.4
20260510124531 56 226 3.0 7.0 0.00 0.15 0.00 90 1011.4
20260510123528 56 238 2.0 4.0 0.00 0.15 0.00 91 1011.4
20260510122544 55 251 3.0 6.0 0.00 0.15 0.00 92 1011.1
20260510121540 55 269 4.0 8.0 0.00 0.15 0.00 92 1011.0
20260510120515 55 229 3.0 7.0 0.00 0.15 0.00 93 1011.1
20260510115532 54 249 2.0 3.0 0.00 0.15 0.00 94 1011.2
20260510114548 54 219 2.0 3.0 0.00 0.15 0.00 94 1011.3
20260510113544 55 0.0 0.0 0.00 0.15 0.00 99 1011.2
20260510112540 55 0.0 0.0 0.00 0.15 0.00 99 1011.1
20260510111536 51 0.0 0.0 0.00 0.15 0.00 99 1010.9
20260510110552 50 0.0 0.0 0.00 0.15 0.00 99 1010.7
20260510105548 49 0.0 0.0 0.00 0.15 0.00 99 1010.6
20260510104524 49 0.0 0.0 0.00 0.15 0.00 99 1010.4
20260510103520 48 0.0 0.0 0.00 0.15 0.00 99 1010.2
20260510102516 48 0.0 0.0 0.00 0.15 0.00 99 1010.3
20260510101612 48 0.0 0.0 0.00 0.15 0.00 99 1010.4
20260510100528 48 0.0 0.0 0.00 0.15 0.00 99 1010.2
20260510095525 49 0.0 0.0 0.00 0.15 0.00 99 1009.7
20260510094520 49 0.0 0.0 0.00 0.15 0.00 99 1009.6
20260510093516 49 0.0 0.0 0.00 0.15 0.00 99 1009.6
20260510092532 50 0.0 0.0 0.00 0.15 0.00 99 1009.3
20260510091548 50 0.0 0.0 0.00 0.15 0.00 99 1009.3
20260510090523 50 0.0 0.0 0.00 0.15 0.00 99 1009.2
20260510085520 50 0.0 0.0 0.00 0.15 0.00 99 1009.0
20260510084516 51 0.0 0.0 0.00 0.15 0.00 99 1009.2
20260510083532 51 267 5.0 7.0 0.00 0.15 0.00 99 1009.4
20260510082528 51 264 4.0 7.0 0.00 0.15 0.00 99 1009.1
20260510081524 51 254 3.0 6.0 0.00 0.15 0.00 99 1009.1
20260510080520 51 233 3.0 6.0 0.00 0.15 0.00 99 1008.8
20260510075516 51 234 1.0 4.0 0.00 0.15 0.00 99 1009.2
20260510074532 51 225 2.0 6.0 0.00 0.15 0.00 99 1009.5
20260510073528 51 173 1.0 4.0 0.00 0.15 0.00 99 1009.8
20260510072524 51 191 1.0 2.0 0.00 0.15 0.00 99 1010.2
20260510071620 52 189 1.0 3.0 0.00 0.15 0.00 97 1010.1
20260510070516 53 229 3.0 7.0 0.00 0.15 0.00 96 1010.2
20260510065552 53 241 2.0 6.0 0.00 0.15 0.00 94 1010.1
20260510064528 52 243 1.0 3.0 0.00 0.15 0.00 95 1009.9
20260510063523 52 227 1.0 2.0 0.00 0.15 0.00 95 1009.7
20260510062538 52 178 1.0 3.0 0.00 0.15 0.00 95 1009.6
20260510061533 52 260 3.0 6.0 0.00 0.15 0.00 97 1009.8
20260510060530 51 0.0 0.0 0.00 0.15 0.00 98 1009.4
20260510055545 50 217 0.0 1.0 0.00 0.15 0.00 98 1009.4
20260510054601 50 0.0 0.0 0.00 0.15 0.00 98 1009.4
20260510053516 51 0.0 0.0 0.00 0.15 0.00 97 1009.4
20260510052532 51 0.0 0.0 0.00 0.15 0.00 96 1009.4
20260510051528 51 260 1.0 2.0 0.00 0.15 0.00 96 1009.5
20260510050524 51 0.0 0.0 0.00 0.15 0.00 96 1009.4
20260510050028 51 254 1.0 2.0 0.00 0.15 0.00 97 1009.5
20260510045024 51 243 1.0 1.0 0.00 0.15 0.00 98 1009.4
20260510044020 51 197 0.0 2.0 0.00 0.15 0.00 98 1009.4
20260510043016 51 236 1.0 2.0 0.00 0.15 0.00 97 1009.3
20260510042032 51 199 2.0 6.0 0.00 0.15 0.00 99 1009.4
20260510041048 50 203 1.0 4.0 0.00 0.15 0.00 99 1009.6
20260510040024 50 247 0.0 3.0 0.00 0.15 0.15 99 1009.6
20260510035021 50 204 0.0 2.0 0.00 0.15 0.15 99 1009.4
20260510034017 50 0.0 0.0 0.00 0.15 0.15 99 1009.3
20260510033033 50 0.0 0.0 0.00 0.15 0.15 99 1009.5
20260510032030 50 0.0 0.0 0.00 0.15 0.15 99 1009.5
20260510031046 50 0.0 0.0 0.00 0.15 0.15 99 1009.5
20260510030022 50 0.0 0.0 0.00 0.15 0.15 99 1009.5
20260510025018 50 0.0 0.0 0.00 0.15 0.15 99 1009.7
20260510024034 50 0.0 0.0 0.00 0.15 0.15 99 1009.4
20260510023030 50 0.0 0.0 0.00 0.15 0.15 99 1009.7
20260510022025 50 200 0.0 1.0 0.00 0.15 0.15 99 1009.6
20260510021042 50 0.0 0.0 0.00 0.15 0.15 99 1009.5
20260510020018 50 0.0 0.0 0.00 0.15 0.15 99 1009.3
20260510015034 50 0.0 0.0 0.00 0.15 0.15 99 1009.5
20260510014030 51 0.0 0.0 0.00 0.15 0.15 99 1009.7
20260510013026 51 0.0 0.0 0.00 0.15 0.15 99 1009.6
20260510012022 51 0.0 0.0 0.00 0.15 0.15 99 1009.7
20260510011019 51 0.0 0.0 0.00 0.15 0.15 99 1009.8
20260510010015 51 0.0 0.0 0.00 0.15 0.15 99 1009.8
20260510005527 51 0.0 0.0 0.00 0.15 0.15 99 1009.7
20260510004522 51 0.0 0.0 0.00 0.15 0.15 99 1009.8
20260510003519 51 0.0 0.0 0.00 0.15 0.15 99 1009.4
20260510002554 52 224 0.0 1.0 0.00 0.15 0.15 99 1009.3
20260510001530 52 0.0 0.0 0.00 0.15 0.15 99 1009.2
20260510000526 52 0.0 0.0 0.00 0.15 0.15 99 1009.4
20260509235522 53 0.0 0.0 0.00 0.15 0.15 98 1009.3
20260509234518 53 0.0 0.0 0.00 0.15 0.15 97 1009.1
20260509233535 53 0.0 0.0 0.00 0.15 0.15 97 1009.0
20260509232530 53 0.0 0.0 0.00 0.15 0.15 97 1009.0
20260509231526 53 94 0.0 1.0 0.00 0.15 0.15 96 1008.8
20260509230522 53 89 1.0 1.0 0.00 0.15 0.15 96 1008.9
20260509225518 53 159 0.0 1.0 0.00 0.15 0.15 96 1008.9
20260509224535 54 0.0 0.0 0.00 0.15 0.15 96 1008.9
20260509223530 53 0.0 0.0 0.00 0.15 0.15 96 1009.0
20260509222526 53 182 0.0 1.0 0.00 0.15 0.15 96 1009.1
20260509221521 53 0.0 0.0 0.00 0.15 0.15 96 1009.2
20260509220518 53 197 1.0 2.0 0.00 0.15 0.15 96 1009.2
20260509215534 52 214 1.0 3.0 0.00 0.15 0.15 97 1009.4
20260509214529 52 204 1.0 6.0 0.00 0.15 0.15 97 1009.4
20260509213526 52 185 0.0 1.0 0.00 0.15 0.15 98 1009.5
20260509212522 52 207 0.0 1.0 0.00 0.15 0.15 99 1009.7
20260509211518 52 193 0.0 1.0 0.00 0.15 0.15 99 1009.8
20260509210557 52 199 0.0 2.0 0.00 0.15 0.15 99 1009.8
20260509205530 52 0.0 0.0 0.00 0.15 0.15 99 1009.9
20260509204525 51 238 0.0 1.0 0.00 0.15 0.15 99 1010.0
20260509203542 51 69 0.0 1.0 0.00 0.15 0.15 99 1010.2
20260509202518 52 85 0.0 1.0 0.00 0.15 0.15 98 1010.2
20260509201534 52 0.0 0.0 0.01 0.15 0.15 98 1010.3
20260509200529 51 0.0 0.0 0.01 0.15 0.15 98 1010.3
20260509195525 51 0.0 0.0 0.01 0.15 0.15 98 1010.3